User: anonymous   Login
Location: Mount Wilson Observatory
(34.2257°N, 118.0571°W)
Time: 18:31:15
(UTC-07:00)
Language:

ATLAS 3B CENTAUR R/B - Orbit

View from above orbital plane
View from above orbital plane
View from above satellite
View from above satellite

Ground track
Ground track

The orbit data is extracted from the following two-line orbital elements,

1 28118U 03057B   16236.24308528  .00053756  00000-0  82067-3 0  9997
2 28118  28.1192 173.6432 3242351  90.4489 306.1558  8.99382351262304
Epoch (UTC): 23 August 2016 05:50:02
Eccentricity: 0.3242351
inclination: 28.1192°
perigee height: 222 km
apogee height: 6556 km
right ascension of ascending node: 173.6432°
argument of perigee: 90.4489°
revolutions per day: 8.99382351
mean anomaly at epoch: 306.1558°
orbit number at epoch: 26230

The dashed part of the orbit path shows where the satellite is in the earth's shadow,  

DLR